Weather Roundup
Issued by NWS Corpus Christi, TX

Current Version | Previous Version | Text Only | Print | Product List | Glossary On
Versions: 1 2 3 4 5 6 7 8 9 10 11 12 13 14 15 16 17 18 19 20 21 22 23 24 25 26 27 28 29 30 31 32 33 34 35 36 37 38 39 40 41 42 43 44 45 46 47 48 49 50
428
ASUS44 KCRP 061710
HRRCRP

SOUTH TEXAS REGIONAL WEATHER ROUNDUP
NATIONAL WEATHER SERVICE CORPUS CHRISTI TX
1200 PM CDT FRI MAY 06 2016


TXZ229>244-061800-
...CORPUS CHRISTI AREA OBSERVATIONS...

CITY           SKY/WX    TMP DP  RH WIND       PRES   REMARKS
CORPUS CHRISTI MOSUNNY   85  52  32 E7        30.07S
NAS CORPUS CHR MOSUNNY   82  66  58 E8        30.06F
ROCKPORT       SUNNY     83  58  42 E10       30.07R
KINGSVILLE NAS MOSUNNY   85  60  42 CALM      30.06F
ALICE          SUNNY     85  51  31 SE9G17    30.06F
FALFURRIAS     SUNNY     88  47  24 S6        30.06S
$$

...VICTORIA AREA OBSERVATIONS...

CITY           SKY/WX    TMP DP  RH WIND       PRES   REMARKS
VICTORIA       SUNNY     81  51  35 E6        30.09S
BEEVILLE       FAIR      86  53  32 E10       30.07F
PLEASANTON     SUNNY     84  49  29 SE6       30.08F
SAN ANTONIO    MOSUNNY   78  51  38 E7        30.11F
$$

...LAREDO AREA OBSERVATIONS...

CITY           SKY/WX    TMP DP  RH WIND       PRES   REMARKS
LAREDO         SUNNY     89  45  21 SE10      30.05S
COTULLA        SUNNY     87  45  23 SE9G18    30.06S
DEL RIO        SUNNY     83  52  34 SE14      30.05S
MCALLEN        SUNNY     91  49  23 SE13G18   30.06S
HEBBRONVILLE   SUNNY     87  40  19 SE8       30.07F
$$

...OTHER TEXAS OBSERVATIONS...

CITY           SKY/WX    TMP DP  RH WIND       PRES   REMARKS
BROWNSVILLE    SUNNY     86  56  35 VRB7      30.06S
HOUSTON        MOSUNNY   79  47  32 CALM      30.10S
COL. STATION   SUNNY     81  50  33 NE5       30.10S
AUSTIN         SUNNY     79  49  34 SE10      30.10F
WACO           SUNNY     79  50  36 SE7       30.11S
FORT WORTH     MOSUNNY   80  48  32 SE10      30.11S
WICHITA FALLS  MOSUNNY   78  52  40 S10       30.10S
LUBBOCK        MOSUNNY   81  38  21 SE25G33   30.07S
EL PASO        SUNNY     83  26  12 S9G16     29.94F
$$

...MARINE OBSERVATIONS...

STATION/POSITION TIME  SKY/WX   TEMP    WIND        PRES    VSBY  WAVE   SWELL
                                AIR SEA DIR/SP/G                  HT/PER HT/PER
                 (UTC)          (F)     (DEG/KT/KT) (MB)    (MI)  (FT/S) (FT/S)
PORT ARANSAS     1700            76 78  100/  8/  9 1019.2R
BUOY 90 E PORT A 1650            76 76  100/  8/  8 1018.4F         1/ 3
BUOY 45 SE BAFFI 1650            75 76  290/  6/  6 1018.0S         1
BUOY 200 E PT IS 1650                                 N/A           2/ 4   2/ 4
BUOY 15 E GALVES 1650            75 77  120/  2/  4 1018.9R         1/ 5
$$




USA.gov is the U.S. government's official web portal to all federal, state and local government web resources and services.